Location: Newark
(39.0622°N, 106.5590°E)
Time: 13:37:51
(UTC+00:00)

Vanguard 2 Rocket - Pass Details

Date: 29 January 2020
Orbit: 553 x 3327 km, 32.9° (Epoch: 24 February)

Event Time Altitude Azimuth Distance (km) Brightness Sun altitude
Rises 20:23:19 0° 234° (SW) 2,807 - -42.6°
Reaches altitude 10° 20:25:52 10° 220° (SW) 1,829 - -42.2°
Maximum altitude 20:29:08 25° 163° (SSE) 1,150 - -41.5°
Drops below altitude 10° 20:32:39 10° 107° (ESE) 1,984 - -40.9°
Exits shadow 20:33:04 - 104° (ESE) 2,140 9.4 -40.8°
Sets 20:35:33 0° 94° (E) 3,111 10.5 -40.3°
